sat.trackr.live / text

‹ back to catalog

STARLINK-36598

NORAD 67844 · 2026-033Z

PAYLOAD ACTIVE UNKNOWN

§ Identity

Operator
Country
US
Launch date
2026-02-16
Launch site
AFETR
Launch vehicle
Mass (kg)
RCS (m²)

Purposes: comms

External: N2YO · Heavens-Above · Gunter

§ Orbital elements

Epoch: 2026-09-19T23:30:06.310080Z

Period
94.27 min
Inclination
43.0004°
Eccentricity
0.0001363
Mean motion
15.27587814 rev/d
Perigee alt
482.1 km
Apogee alt
484.0 km
Semi-major
6,861.2 km
B*
4.0301e-4
RAAN
250.1966°
Arg perigee
262.4107°
Mean anomaly
97.6590°
Rev number
3,438

§ Raw data

STARLINK-365981 67844U 26033Z   26262.97923970  .00010847  00000+0  40301-3 0  99972 67844  43.0004 250.1966 0001363 262.4107  97.6590 15.27587814 34388

JSON: /api/v1/satellites/67844 · /tle

For live sub-satellite position, see the globe view (requires WebGL).

§ Visibility from observer

Set your observer location to see the next 7 days of passes ≥ 10°. The values pass through the URL so the page stays shareable.

No JS? Fill the form by hand. The geolocation button needs JavaScript.